User: anonymous   Login
Location: T�bingen+AIT
(48.5342°N, 9.0700°E)
Time: 21:06:38
(UTC+01:00)
Language:

GP-B - Orbit

View from above orbital plane
View from above orbital plane
View from above satellite
View from above satellite

Ground track
Ground track

The orbit data is extracted from the following two-line orbital elements,

1 28230U 04014A   17345.88569360  .00000133  00000-0  15988-4 0  9991
2 28230  89.8406 118.5661 0001958  98.8836 261.2608 14.78587272735354
Epoch (UTC): 11 December 2017 21:15:23
Eccentricity: 0.0001958
inclination: 89.8406°
perigee height: 632 km
apogee height: 635 km
right ascension of ascending node: 118.5661°
argument of perigee: 98.8836°
revolutions per day: 14.78587272
mean anomaly at epoch: 261.2608°
orbit number at epoch: 73535

The dashed part of the orbit path shows where the satellite is in the earth's shadow,  

DLR